This is the latest recevied weather packets stored in our database for station/object F4FSZ-11. If no packets are shown the sender has not sent any weather packets the latest 10 day(s).
| Time | Temp. | Humidity | Pressure | Rain* | Wind** | Luminosity | Snow |
|---|---|---|---|---|---|---|---|
| 1777945732 | 12.22° C | 100% | 1004.5 hPa | - | - | - | - |
| 1777944832 | 12.22° C | 100% | 1004.7 hPa | - | - | - | - |
| 1777943932 | 11.67° C | 100% | 1004.8 hPa | - | - | - | - |
| 1777943032 | 11.67° C | 100% | 1004.9 hPa | - | - | - | - |
| 1777942131 | 11.11° C | 100% | 1005.2 hPa | - | - | - | - |
| 1777941231 | 11.11° C | 100% | 1005.2 hPa | - | - | - | - |
| 1777940331 | 11.11° C | 100% | 1005.3 hPa | - | - | - | - |
| 1777939431 | 10.56° C | 100% | 1005.5 hPa | - | - | - | - |
| 1777938531 | 10.56° C | 100% | 1005.4 hPa | - | - | - | - |
| 1777937631 | 10.56° C | 100% | 1005.6 hPa | - | - | - | - |
| 1777936731 | 10.56° C | 100% | 1005.7 hPa | - | - | - | - |
| 1777935831 | 10.56° C | 100% | 1005.8 hPa | - | - | - | - |
| 1777934931 | 10.56° C | 100% | 1006 hPa | - | - | - | - |
| 1777934031 | 11.11° C | 100% | 1006 hPa | - | - | - | - |
| 1777933131 | 11.11° C | 100% | 1006 hPa | - | - | - | - |
| 1777932231 | 11.11° C | 100% | 1006.3 hPa | - | - | - | - |
| 1777931331 | 11.11° C | 100% | 1006.3 hPa | - | - | - | - |
| 1777930431 | 11.67° C | 100% | 1006.3 hPa | - | - | - | - |
| 1777929531 | 12.22° C | 99% | 1006.4 hPa | - | - | - | - |
| 1777928631 | 12.78° C | 99% | 1006.6 hPa | - | - | - | - |
| 1777927731 | 12.22° C | 100% | 1006.8 hPa | - | - | - | - |
| 1777926831 | 12.22° C | 99% | 1006.9 hPa | - | - | - | - |
| 1777925931 | 12.22° C | 100% | 1006.8 hPa | - | - | - | - |
| 1777925030 | 12.78° C | 99% | 1006.9 hPa | - | - | - | - |
| 1777924130 | 12.78° C | 98% | 1006.7 hPa | - | - | - | - |
* Rain since midnight (hover to see other rain measurements)
** Current wind speed in m/s (hover to see current wind gust speed)